Regional Weather Roundup
Issued by NWS Upton, NY

Current Version | Previous Version | Graphics & Text | Print | Product List | Glossary Off
Versions: 1 2 3 4 5 6 7 8 9 10 11 12 13 14 15 16 17 18 19 20 21 22 23 24 25 26 27 28 29 30 31 32 33 34 35 36 37 38 39 40 41 42 43 44 45 46 47 48 49 50

000
ASUS41 KOKX 071308
RWROKX

REGIONAL WEATHER ROUNDUP
NATIONAL WEATHER SERVICE NEW YORK NY
900 AM EDT TUE JUL 07 2015

NOTE: "FAIR" INDICATES FEW OR NO CLOUDS BELOW 12,000 FEET WITH NO
SIGNIFICANT WEATHER AND/OR OBSTRUCTIONS TO VISIBILITY.

NYZ071-072-176-178-NJZ106-104-071400-
NEW YORK CITY METRO AREA


CITY           SKY/WX    TMP DP  RH WIND       PRES   REMARKS
CENTRAL PARK   PTSUNNY   80  71  74 VRB6      30.07S
LAGUARDIA APRT PTSUNNY   79  72  79 S10       30.04S
KENNEDY INTL   PTSUNNY   80  73  79 S13       30.06S
NEWARK/LIBERTY PTSUNNY   80  73  79 S9        30.03F
BRNX BOT. GARD   N/A     79  72  78 SE8       30.07S
TETERBORO      PTSUNNY   80  71  74 S12       30.03S
$$

NYZ177-179-078>081-071400-
LONG ISLAND NEW YORK

CITY           SKY/WX    TMP DP  RH WIND       PRES   REMARKS
FARMINGDALE    CLOUDY    77  73  87 S10       30.07R
ISLIP          DRIZZLE   76  72  87 S9        30.06R
SHIRLEY        CLOUDY    76  72  87 S7        30.08S FOG
WESTHAMPTON    CLOUDY    76  74  93 VRB7      30.09S
MONTAUK POINT    N/A     73  72  96 CALM      30.11R
$$

NYZ052-065-067-071400-
HUDSON VALLEY

CITY           SKY/WX    TMP DP  RH WIND       PRES   REMARKS
WHITE PLAINS   PTSUNNY   77  72  84 SE8       30.05F
NEWBURGH       PTSUNNY   75  72  88 VRB6      30.06S
MONTGOMERY       N/A    N/A N/A N/A MISG      30.04S
POUGHKEEPSIE   PTSUNNY   77  71  82 SE7       30.03S
ALBANY         CLOUDY    77  68  73 S9        30.03S
$$

NJZ001-105-106-008-010-013-015-019>022-104-071400-
NEW JERSEY

CITY           SKY/WX    TMP DP  RH WIND       PRES   REMARKS
NEWARK/LIBERTY PTSUNNY   80  73  79 S9        30.03F
TETERBORO      PTSUNNY   80  71  74 S12       30.03S
CALDWELL       CLOUDY    77  71  82 S6        30.04S
MORRISTOWN     CLOUDY    81  75  83 SW8       30.05R
SOMERVILLE     CLOUDY    77  72  84 VRB5      30.03S
SUSSEX         CLOUDY    78  70  76 SW6       30.04S
ANDOVER          N/A     76  70  82 S5        30.05S
TRENTON        CLOUDY    78  72  81 SW6       30.04S
MILLVILLE      PTSUNNY   81  74  79 VRB3      30.06S
ATLANTIC CITY  NOT AVBL
WRIGHTSTOWN    MOSUNNY   81  74  79 SW10      30.03R
TOMS RIVER     PTSUNNY   82  72  69 SW10      30.06S
BELMAR         PTSUNNY   81  70  69 S8        30.06S
$$

PAZ047>061-062-071-071400-
EASTERN PENNSYLVANIA

CITY           SKY/WX    TMP DP  RH WIND       PRES   REMARKS
PHILADELPHIA   MOSUNNY   80  72  76 SW8       30.05S
ALLENTOWN      CLOUDY    77  72  84 VRB6      30.05R
SCRANTON       CLOUDY    76  71  85 W6        30.04S
$$

CTZ002-004>006-009-010-012-RIZ004-006-007-MAZ004-011-015-071400-
SOUTHERN NEW ENGLAND
 IN CT

CITY           SKY/WX    TMP DP  RH WIND       PRES   REMARKS
BRADLEY INTL   CLOUDY    72  68  87 S6        30.08S
HARTFORD       CLOUDY    74  69  85 MISG      30.07S
DANBURY        CLOUDY    75  69  81 SE8       30.07F
WTRBRY/OXFORD  CLOUDY    73  68  83 SE7       30.10S FOG
BRIDGEPORT     CLOUDY    74  71  91 E7        30.06S
MERIDEN        CLOUDY    76  70  82 S5        30.08R
NEW HAVEN      CLOUDY    74  71  91 SE6       30.07S FOG
CHESTER        FOG       72  72 100 S3        30.11R VSB 1/4
GROTON         CLOUDY    72  70  93 SE9       30.08F FOG
WILLIMANTIC    CLOUDY    73  70  90 CALM      30.09F

 IN RI

CITY           SKY/WX    TMP DP  RH WIND       PRES   REMARKS
PROVIDENCE     CLOUDY    73  70  90 S8        30.11S
BLOCK ISLAND   PTSUNNY   75  72  88 S12       30.11S
WESTERLY       FOG       71  70  96 SE7       30.10S VSB 3/4

 IN MA

CITY           SKY/WX    TMP DP  RH WIND       PRES   REMARKS
BOSTON         PTSUNNY   72  68  87 SE5       30.10F
WORCESTER      CLOUDY    70  66  87 SE6       30.13S
WESTFIELD      CLOUDY    72  67  84 CALM      30.08S
PROVINCETOWN   SUNNY     75  18  11 S14       30.12F
NANTUCKET      SUNNY     70  63  78 SE12      30.13F
$$

ANZ330-335-338-340-345-350-353-355-071400-
COASTAL MARINE OBSERVATIONS


STATION/POSITION TIME  SKY/WX   TEMP    WIND        PRES    VSBY  WAVE
                                AIR SEA DIR/SP/G                  HT/PER
                 (UTC)          (F)     (DEG/KT/KT) (MB)    (MI)  (FT/S)
NY HARB ENTRANCE 1250            74 72  190/ 12/ 14 1017.4          2/ 3
4S FIRE IS       1203               69                N/A           2/ 9
20S FIRE ISLAND  1250            72 70  200/ 10/ 10 1018.0          2/ 8
GREAT SOUTH BAY  1200            72 76  210/  8/ 12   N/A
23SW MTP         1250            70 70  160/  8/  8 1018.6          2/ 8
HUDSON CANYON    NOT AVBL
KINGS POINT      1200            75 68  180/  5/  7 1016.9
CENTRAL LI SOUND NOT AVBL
EASTERN LI SOUND 1200            67 64  130/  6/  8   N/A
ROBBINS REEF     1200            73     170/  8/  8 1016.2
$$


>>>>>>>>>>>>>>>>>>>>>>>>>>>> KEY <<<<<<<<<<<<<<<<<<<<<<<<<<<
>                                                          <
>     SKY/WX - SKY CONDITION/PRESENT WEATHER               <
>     TMP    - TEMPERATURE IN FAHRENHEIT                   <
>     DP     - DEWPOINT IN FAHRENHEIT                      <
>     RH     - RELATIVE HUMIDITY IN PERCENT                <
>     WIND   - DIRECTION AND SPEED IN MPH                  <
>     PRES   - MEAN SEA LEVEL PRESSURE IN INCHES OF HG     <
>     WCI    - WIND CHILL INDEX                            <
>     VSB    - VISIBILITY IN MILES                         <
>     HX     - HEAT INDEX                                  <
>     TC     - TEMPERATURE IN CELSIUS                      <
>     VRB    - VARIABLE WIND DIRECTION                     <
>                                                          <
>>>>>>>>>>>>>>>>>>>>>>>>>>>> KEY <<<<<<<<<<<<<<<<<<<<<<<<<<<





USA.gov is the U.S. government's official web portal to all federal, state and local government web resources and services.